594  
ASUS44 KSJT 190415  
RWRSJT  
WEST CENTRAL TEXAS REGIONAL WEATHER ROUNDUP  
NATIONAL WEATHER SERVICE SAN ANGELO TX  
1100 PM CDT MON MAR 18 2019  
 
NOTE: "FAIR" INDICATES FEW OR NO CLOUDS BELOW 12,000 FEET WITH NO  
SIGNIFICANT WEATHER AND/OR S TO VISIBILITY
.  
 
TXZ049-054-064>066-071>073-076>078-098-099-113-114-127-128-139-140-  
154-155-168>170-190500   
..LOCATIONS ACROSS WEST CENTRAL TEXAS
 
 
 
CITY SKY/WX TMP DP RH WIND PRES REMARKS
 
SAN ANGELO CLOUDY 52 35 52 E5 30.23R  
ABILENE PTCLDY 50 34 54 SE7 30.24R  
DYESS AFB PTCLDY 48 33 54 CALM 30.24R  
JUNCTION CLOUDY 58 28 32 SE9 30.25R  
SWEETWATER CLOUDY 52 32 46 S8 30.26  
BROWNWOOD PTCLDY 50 34 53 SE6 30.25S  
COLEMAN CLEAR 53 32 45 SE5 30.25S  
SONORA PTCLDY 54 28 37 CALM 30.27R  
OZONA CLOUDY 50 34 53 CALM 30.25S  
BRADY MOCLDY 55 30 38 SE7 30.25R  

 
 
TEXAS PANHANDLE/OKLAHOMA PANHANDLE  
 
CITY SKY/WX TMP DP RH WIND PRES REMARKS
 
AMARILLO CLEAR 47 22 37 SE15 30.19S  
BORGER CLEAR 52 21 29 S15G24 30.18S  
CANADIAN CLEAR 54 26 34 S20G25 30.19R  
DALHART CLEAR 43 25 49 S14 30.16R WCI 36  
DUMAS CLEAR 46 24 43 S12 30.17S WCI 40  
GUYMON NOT AVBL  
HEREFORD CLEAR 46 24 42 S12 30.21S  
PAMPA CLEAR 49 22 33 S15 30.21S  
PERRYTON CLEAR 49 28 44 S14 30.16  

 
 
SOUTHERN PANHANDLE/SOUTH PLAINS/ROLLING PLAINS  
 
CITY SKY/WX TMP DP RH WIND PRES REMARKS
 
LUBBOCK PTCLDY 47 25 42 SE9 30.22R  
SNYDER PTCLDY 49 29 45 SE6 30.24  
CHILDRESS CLEAR 48 28 46 SE7 30.24R  
SEMINOLE CLOUDY 47 30 51 SE3 30.27S  

 
 
PERMIAN BASIN  
 
CITY SKY/WX TMP DP RH WIND PRES REMARKS
 
MIDLAND PTCLDY 52 34 50 CALM 30.23R  
ODESSA CLEAR 52 31 44 SW3 30.23R  
WINK PTCLDY 51 30 44 SE6 30.20R  

 
 
FAR WEST/SOUTHWEST MOUNTAINS/TRANS PECOS  
 
CITY SKY/WX TMP DP RH WIND PRES REMARKS
 
ALPINE CLEAR 44 26 48 N3 30.28R  
DRYDEN N/A 48 31 51 E6 30.20R  
EL PASO CLEAR 54 29 38 E6 30.17R  
FORT STOCKTON CLEAR 50 31 48 SE5 30.22R  
GUADALUPE PASS NOT AVBL  
MARFA CLEAR 37 23 56 N9 30.25 WCI 30  
PECOS CLOUDY 54 30 40 E6 30.22R  

 
 
DALLAS/FORT WORTH METROPLEX  
 
CITY SKY/WX TMP DP RH WIND PRES REMARKS
 
DFW AIRPORT PTCLDY 59 34 39 S6 30.24R  
FTW MEACHAM PTCLDY 57 32 38 S3 30.25S  
DAL-EXECUTIVE PTCLDY 58 33 39 S5 30.25R  
GRAND PRAIRIE PTCLDY 59 33 37 CALM 30.28  
ADDISON PTCLDY 58 33 37 CALM 30.28R  
MESQUITE CLEAR 56 34 42 CALM 30.27  
LANCASTER PTCLDY 50 38 64 CALM 30.27S  

 
 
NORTH CENTRAL TEXAS  
 
CITY SKY/WX TMP DP RH WIND PRES REMARKS
 
SHRMAN/DENISON CLEAR 54 34 46 SE7 30.27R  
GAINESVILLE CLEAR 54 32 44 CALM 30.28R  
BRIDGEPORT PTCLDY 57 32 38 S7 30.28  
DENTON CLEAR 53 34 48 CALM 30.26R  
WAXAHACHIE PTCLDY 48 41 75 CALM 30.28R  
GRANBURY MOCLDY 54 37 52 CALM 30.27S  

 
 
WESTERN NORTH TEXAS  
 
CITY SKY/WX TMP DP RH WIND PRES REMARKS
 
WICHITA FALLS CLEAR 50 34 54 S9 30.24R  
VERNON CLEAR 55 35 48 E3 30.24  
BRECKENRIDGE PTCLDY 56 30 37 SE9 30.25R  
COMANCHE CLOUDY 54 36 50 SE5 30.27R  

 
 
CENTRAL AND SOUTH CENTRAL TEXAS  
 
CITY SKY/WX TMP DP RH WIND PRES REMARKS
 
AUSTIN/BERGSTM MOCLDY 48 39 71 CALM 30.27R  
WACO CLOUDY 49 40 71 CALM 30.26S  
HILLSBORO MOCLDY 55 38 53 CALM 30.26S  
TEMPLE N/A 57 35 43 E5 30.27R  
KILLEEN-GRAY CLOUDY 58 33 38 SE3 30.25R  
FORT HOOD CLOUDY 58 33 37 SE3 30.22R  
GEORGETOWN CLOUDY 55 39 54 CALM 30.29R  
LAGO VISTA FAIR 56 31 39 S5 30.27S  
SAN MARCOS MOCLDY 50 34 54 CALM 30.28R  
NEW BRAUNFELS MOCLDY 55 34 45 SE6 30.26R  
RANDOLPH AFB CLOUDY 54 37 52 E3 30.26R  
SAN ANTONIO MOCLDY 54 36 50 SE6 30.26S  
STINSON PTCLDY 57 33 40 E7 30.24F  
PLEASANTON NOT AVBL  
LA GRANGE PTCLDY 51 42 71 CALM 30.26R  
GIDDINGS PTCLDY 53 43 67 CALM 30.28R HAZE  

 
 
EAST TEXAS  
 
CITY SKY/WX TMP DP RH WIND PRES REMARKS
 
PARIS CLEAR 54 39 57 SE6 30.28R  
CLARKSVILLE NOT AVBL  
TYLER PTCLDY 54 37 52 S6 30.27R  
LONGVIEW CLEAR 53 43 68 NE7 30.27R  
PALESTINE CLEAR 55 39 55 S3 30.29R  
NACOGDOCHES CLEAR 47 42 83 CALM 30.29R  

 
 
TEXAS HILL COUNTRY AND EDWARDS PLATEAU  
 
CITY SKY/WX TMP DP RH WIND PRES REMARKS
 
LLANO PTCLDY 55 36 47 CALM 30.30R  
HORSESHOE BAY FAIR 56 31 38 S5 30.27R  
KERRVILLE MOCLDY 54 28 37 CALM 30.27R  
FREDERICKSBRG CLOUDY 52 29 41 CALM 30.27R  
ROCKSPRINGS CLOUDY 55 27 33 SE9 30.29R  
HONDO PTCLDY 55 36 48 E7 30.26R  
UVALDE PTCLDY 50 34 54 E7 30.26R  
DEL RIO CLOUDY 61 32 33 E9 30.21R  

 
 
SOUTHEAST TEXAS  
 
CITY SKY/WX TMP DP RH WIND PRES REMARKS
 
COLLEGE STN PTCLDY 53 39 59 CALM 30.28R  
CALDWELL CLEAR 53 38 56 CALM 30.28S  
CROCKETT N/A 46 41 81 CALM 30.31R  
BRENHAM CLEAR 55 38 51 CALM 30.29R  
HUNTSVILLE CLEAR 53 41 63 CALM 30.27R  
CONROE CLEAR 46 43 89 CALM 30.28R  
HOUSTON BUSH PTCLDY 52 43 71 CALM 30.28R  
HOUSTON HOBBY MOCLDY 58 43 57 E6 30.27R  
PERLAND FAIR 58 45 62 CALM 30.28R  
WHARTON CLOUDY 57 37 46 CALM 30.28R  

 
 
THE UPPER TEXAS COAST  
 
CITY SKY/WX TMP DP RH WIND PRES REMARKS
 
ORANGE FAIR 47 47 98 CALM 30.29S  
PORT ARTHUR FAIR 52 41 66 NE3 30.27R  
GALVESTON CLOUDY 61 45 55 NE9 30.27R  
ANGLETON MOCLDY 58 46 64 NE6 30.26S  
BAY CITY FAIR 56 46 71 CALM 30.27R  

 
 
TEXAS COASTAL BEND, RIO GRANDE PLAINS DEEP SOUTH TEXAS  
 
CITY SKY/WX TMP DP RH WIND PRES REMARKS
 
VICTORIA CLOUDY 55 42 61 NE7 30.27R  
BEEVILLE CLOUDY 57 42 57 E5 30.26S  
ROCKPORT MOCLDY 57 50 77 NE7 30.25R  
PORT ARANSAS CLEAR 61 52 71 NE12 30.25S  
PORT LAVACA CLOUDY 61 47 59 NE7 30.26S  
CORPUS CHRISTI PTCLDY 58 49 72 NE12 30.24S  
KINGSVILLE NAS PTCLDY 57 48 72 NE9 30.23  
COTULLA CLEAR 54 34 46 SE6 30.25R  
LAREDO PTCLDY 60 43 53 E8 30.22R  
BROWNSVILLE MOCLDY 58 57 97 W5 30.21R  
PORT ISABEL CLOUDY 59 55 87 NW6 30.19R  
HEBBRONVILLE PTCLDY 55 46 70 CALM 30.24S  
MCALLEN CLOUDY 58 56 93 W6 30.23R  
WESLACO NOT AVBL  
FALFURRIAS PTCLDY 57 48 72 N3 30.22S  
EDINBURG CLOUDY 59 51 74 CALM 30.23R  

 
 
 
CLICK HERE TO GO TO PREVIOUS BULLETINS.

The Nexlab TX Page Main Text Page